Location: Unspecified
(42.3650°N, 71.1030°W)
Time: 15:04:47
(UTC+00:00)

Explorer 11/Cluster Stage 4 - Pass Details

Date: 21 June 2024
Orbit: 465 x 1214 km, 28.8° (Epoch: 22 July)

Event Time Altitude Azimuth Distance (km) Brightness Sun altitude
Rises 00:07:59 0° 205° (SSW) 4,103 10.2 1.8°
Reaches altitude 10° 00:12:49 10° 180° (S) 3,152 9.4 1.0°
Maximum altitude 00:16:07 13° 155° (SSE) 2,900 9.0 0.5°
Drops below altitude 10° 00:19:22 10° 130° (SE) 3,085 9.0 0.0°
Sets 00:23:58 0° 105° (ESE) 3,941 9.5 -0.7°
